This is the latest recevied weather packets stored in our database for station/object DL9OAC-5. If no packets are shown the sender has not sent any weather packets the latest 10 day(s).
| Time | Temp. | Humidity | Pressure | Rain* | Wind** | Luminosity | Snow |
|---|---|---|---|---|---|---|---|
| 1777637067 | 33.89° C | 20% | 1027 hPa | - | - | - | - |
| 1777636755 | 32.78° C | 21% | 1026.5 hPa | - | - | - | - |
| 1777636455 | 31.67° C | 22% | 1026.6 hPa | - | - | - | - |
| 1777635542 | 30° C | 22% | 1026.7 hPa | - | - | - | - |
| 1777635242 | 30° C | 22% | 1026.8 hPa | - | - | - | - |
| 1777634941 | 30° C | 22% | 1026.9 hPa | - | - | - | - |
| 1777634641 | 30° C | 22% | 1026.8 hPa | - | - | - | - |
| 1777634341 | 30° C | 22% | 1026.9 hPa | - | - | - | - |
| 1777634041 | 30° C | 22% | 1027 hPa | - | - | - | - |
| 1777633742 | 30° C | 22% | 1027 hPa | - | - | - | - |
| 1777633442 | 30° C | 22% | 1027.1 hPa | - | - | - | - |
| 1777633142 | 29.44° C | 22% | 1027.1 hPa | - | - | - | - |
| 1777632842 | 29.44° C | 23% | 1027 hPa | - | - | - | - |
| 1777632542 | 28.89° C | 22% | 1027.2 hPa | - | - | - | - |
| 1777632242 | 28.89° C | 22% | 1026 hPa | - | - | - | - |
| 1777631942 | 28.33° C | 23% | 1027.4 hPa | - | - | - | - |
| 1777631642 | 28.33° C | 22% | 1027.3 hPa | - | - | - | - |
| 1777631040 | 27.78° C | 22% | 1027.3 hPa | - | - | - | - |
| 1777630740 | 27.78° C | 22% | 1027.3 hPa | - | - | - | - |
| 1777630440 | 27.78° C | 22% | 1027.4 hPa | - | - | - | - |
| 1777629839 | 27.78° C | 22% | 1027.5 hPa | - | - | - | - |
| 1777629239 | 27.78° C | 22% | 1027.6 hPa | - | - | - | - |
| 1777628339 | 28.89° C | 22% | 1027.7 hPa | - | - | - | - |
| 1777627739 | 32.22° C | 20% | 1027.8 hPa | - | - | - | - |
| 1777626239 | 28.89° C | 26% | 1028 hPa | - | - | - | - |
* Rain since midnight (hover to see other rain measurements)
** Current wind speed in m/s (hover to see current wind gust speed)